Lincoln County, Oregon, United States
Lat: 44.65N, Lon: 123.85W
Wx Zone: ORZ004
Local Info
Past Weather Observations for Saturday, March 28, 2015

NOTE: This archive is for the closest National Weather Service station to Lincoln County. Information may differ from the station used for current weather conditions.

Click here for Long-term Archive

Time Weather Temperature Dewpoint Humidity Pressure Winds Precip Visibility
23:55
Clear
45°F / 7°C 45°F / 7°C 100% 30.39 in
(1029 mb)
E 3.5 mph
(E 6 kph)
- 10SM
23:35
Clear
46°F / 8°C 45°F / 7°C 93% 30.36 in
(1028 mb)
E 3.5 mph
(E 6 kph)
- 10SM
23:15
Clear
46°F / 8°C 46°F / 8°C 100% 30.36 in
(1028 mb)
Calm - 10SM
22:55
Clear
46°F / 8°C 45°F / 7°C 93% 30.36 in
(1028 mb)
E 5.8 mph
(E 9 kph)
- 10SM
22:35
Clear
46°F / 8°C 45°F / 7°C 93% 30.36 in
(1028 mb)
E 3.5 mph
(E 6 kph)
- 10SM
22:15
Clear
46°F / 8°C 45°F / 7°C 93% N/A Calm - 10SM
21:55
Clear
46°F / 8°C 46°F / 8°C 100% 30.36 in
(1028 mb)
Calm - 10SM
21:35
Clear
48°F / 9°C 46°F / 8°C 94% 30.36 in
(1028 mb)
Calm - 10SM
21:15
Clear
46°F / 8°C 46°F / 8°C 100% 30.36 in
(1028 mb)
Calm - 10SM
20:55
Clear
46°F / 8°C 45°F / 7°C 93% 30.36 in
(1028 mb)
Calm - 10SM
20:35
Clear
46°F / 8°C 45°F / 7°C 93% 30.36 in
(1028 mb)
Calm - 10SM
20:15
Clear
46°F / 8°C 45°F / 7°C 93% 30.36 in
(1028 mb)
Calm - 10SM
19:55
Clear
46°F / 8°C 45°F / 7°C 93% 30.36 in
(1028 mb)
E 3.5 mph
(E 6 kph)
- 10SM
19:35
Clear
48°F / 9°C 46°F / 8°C 94% 30.39 in
(1029 mb)
Calm - 10SM
19:15
Clear
50°F / 10°C 46°F / 8°C 88% 30.36 in
(1028 mb)
Calm - 10SM
18:55
Clear
50°F / 10°C 46°F / 8°C 88% 30.39 in
(1029 mb)
Calm - 10SM
18:35
Clear
52°F / 11°C 46°F / 8°C 82% 30.36 in
(1028 mb)
Calm - 10SM
18:15
Clear
52°F / 11°C 45°F / 7°C 77% 30.39 in
(1029 mb)
Calm - 10SM
17:55
Clear
52°F / 11°C 45°F / 7°C 77% 30.39 in
(1029 mb)
NW 3.5 mph
(NW 6 kph)
- 10SM
17:35
Clear
54°F / 12°C 45°F / 7°C 72% 30.39 in
(1029 mb)
WNW 3.5 mph
(WNW 6 kph)
- 10SM
17:15
Clear
54°F / 12°C 46°F / 8°C 77% 30.39 in
(1029 mb)
Calm - 10SM
16:55
Clear
54°F / 12°C 46°F / 8°C 77% 30.39 in
(1029 mb)
W 3.5 mph
(W 6 kph)
- 10SM
16:35
Clear
54°F / 12°C 46°F / 8°C 77% 30.39 in
(1029 mb)
W 4.6 mph
(W 7 kph)
- 10SM
16:15
Clear
54°F / 12°C 46°F / 8°C 77% 30.42 in
(1030 mb)
SSW 4.6 mph
(SSW 7 kph)
- 10SM
15:55
Clear
54°F / 12°C 45°F / 7°C 72% 30.39 in
(1029 mb)
W 4.6 mph
(W 7 kph)
- 10SM
15:35
Clear
55°F / 13°C 46°F / 8°C 72% 30.42 in
(1030 mb)
WNW 5.8 mph
(WNW 9 kph)
- 10SM
15:15
Clear
54°F / 12°C 45°F / 7°C 72% 30.42 in
(1030 mb)
SSW 4.6 mph
(SSW 7 kph)
- 10SM
14:55
Clear
54°F / 12°C 45°F / 7°C 72% 30.42 in
(1030 mb)
SSW 4.6 mph
(SSW 7 kph)
- 10SM
14:35
Clear
55°F / 13°C 45°F / 7°C 67% 30.42 in
(1030 mb)
SSW 5.8 mph
(SSW 9 kph)
- 10SM
14:15
Clear
55°F / 13°C 45°F / 7°C 67% 30.42 in
(1030 mb)
SSW 5.8 mph
(SSW 9 kph)
- 10SM
13:55
Clear
54°F / 12°C 43°F / 6°C 67% 30.42 in
(1030 mb)
SSW 6.9 mph
(SSW 11 kph)
- 10SM
13:35
Clear
54°F / 12°C 45°F / 7°C 72% 30.42 in
(1030 mb)
SSW 8.1 mph
(SSW 13 kph)
- 10SM
13:15
Clear
55°F / 13°C 46°F / 8°C 72% 30.42 in
(1030 mb)
SW 9.2 mph
(SW 15 kph)
- 10SM
12:55
Clear
55°F / 13°C 46°F / 8°C 72% 30.42 in
(1030 mb)
SW 8.1 mph
(SW 13 kph)
- 10SM
12:35
Clear
54°F / 12°C 46°F / 8°C 77% 30.42 in
(1030 mb)
SW 10.4 mph
(SW 17 kph)
- 10SM
12:15
Clear
54°F / 12°C 46°F / 8°C 77% N/A SW 10.4 mph
(SW 17 kph)
- 10SM
11:55
Clear
54°F / 12°C 46°F / 8°C 77% 30.42 in
(1030 mb)
SW 10.4 mph
(SW 17 kph)
- 10SM
11:35
Clear
55°F / 13°C 46°F / 8°C 72% 30.42 in
(1030 mb)
SW 12.7 mph
(SW 20 kph)
- 10SM
11:15
Clear
55°F / 13°C 48°F / 9°C 77% 30.45 in
(1031 mb)
SW 12.7 mph
(SW 20 kph)
- 10SM
10:55
Clear
54°F / 12°C 46°F / 8°C 77% 30.45 in
(1031 mb)
SW 9.2 mph
(SW 15 kph)
- 10SM
10:35
Clear
54°F / 12°C 48°F / 9°C 82% 30.45 in
(1031 mb)
SW 9.2 mph
(SW 15 kph)
- 7SM
10:15
Clear
54°F / 12°C 46°F / 8°C 77% 30.45 in
(1031 mb)
SW 9.2 mph
(SW 15 kph)
- 10SM
09:55
Clear
54°F / 12°C 46°F / 8°C 77% 30.45 in
(1031 mb)
SW 8.1 mph
(SW 13 kph)
- 10SM
09:35
Clear
54°F / 12°C 48°F / 9°C 82% 30.45 in
(1031 mb)
SW 9.2 mph
(SW 15 kph)
- 7SM
09:15
Partly Cloudy
54°F / 12°C 48°F / 9°C 82% 30.45 in
(1031 mb)
SW 6.9 mph
(SW 11 kph)
- 7SM
08:55
Mostly Cloudy
Light Rain
52°F / 11°C 48°F / 9°C 88% 30.42 in
(1030 mb)
SSW 4.6 mph
(SSW 7 kph)
- 5SM
08:35
Mostly Cloudy
52°F / 11°C 46°F / 8°C 82% 30.42 in
(1030 mb)
SW 6.9 mph
(SW 11 kph)
- 7SM
08:15
Mostly Cloudy
52°F / 11°C 48°F / 9°C 88% 30.42 in
(1030 mb)
SW 4.6 mph
(SW 7 kph)
- 10SM
07:55
Mostly Cloudy
50°F / 10°C 46°F / 8°C 88% 30.42 in
(1030 mb)
S 3.5 mph
(S 6 kph)
- 10SM
07:35
Partly Cloudy
Rain
52°F / 11°C 46°F / 8°C 82% 30.42 in
(1030 mb)
SW 6.9 mph
(SW 11 kph)
- 4SM
07:15
Mostly Cloudy
52°F / 11°C 46°F / 8°C 82% 30.42 in
(1030 mb)
SSW 8.1 mph
(SSW 13 kph)
- 7SM
06:55
Mostly Cloudy
52°F / 11°C 46°F / 8°C 82% 30.42 in
(1030 mb)
SSW 9.2 mph
(SSW 15 kph)
- 7SM
06:35
Mostly Cloudy
50°F / 10°C 46°F / 8°C 88% 30.39 in
(1029 mb)
SSW 5.8 mph
(SSW 9 kph)
- 7SM
06:15
Mostly Cloudy
Rain
50°F / 10°C 46°F / 8°C 88% 30.39 in
(1029 mb)
Calm - 7SM
05:55
Mostly Cloudy
50°F / 10°C 46°F / 8°C 88% 30.39 in
(1029 mb)
S 8.1 mph
(S 13 kph)
- 7SM
05:35
Overcast
50°F / 10°C 46°F / 8°C 88% 30.36 in
(1028 mb)
SW 8.1 mph
(SW 13 kph)
- 10SM
05:15
Mostly Cloudy
50°F / 10°C 45°F / 7°C 82% 30.36 in
(1028 mb)
SSE 8.1 mph
(SSE 13 kph)
- 10SM
04:55
Mostly Cloudy
50°F / 10°C 45°F / 7°C 82% 30.36 in
(1028 mb)
SSW 8.1 mph
(SSW 13 kph)
- 7SM
04:35
Partly Cloudy
50°F / 10°C 46°F / 8°C 88% 30.36 in
(1028 mb)
SW 12.7 mph
(SW 20 kph)
- 7SM
04:15
Partly Cloudy
Light Rain
50°F / 10°C 46°F / 8°C 88% 30.33 in
(1027 mb)
SW 8.1 mph
(SW 13 kph)
- 7SM
03:55
Partly Cloudy
52°F / 11°C 46°F / 8°C 82% 30.33 in
(1027 mb)
SSW 9.2 mph
(SSW 15 kph)
- 10SM
03:35
Mostly Cloudy
52°F / 11°C 46°F / 8°C 82% 30.33 in
(1027 mb)
SSW 10.4 mph
(SSW 17 kph)
- 10SM
03:15
Mostly Cloudy
52°F / 11°C 46°F / 8°C 82% 30.33 in
(1027 mb)
SSW 6.9 mph
(SSW 11 kph)
- 10SM
02:55
Partly Cloudy
52°F / 11°C 46°F / 8°C 82% 30.33 in
(1027 mb)
SW 6.9 mph
(SW 11 kph)
- 7SM
02:35
Partly Cloudy
52°F / 11°C 46°F / 8°C 82% 30.33 in
(1027 mb)
SSW 6.9 mph
(SSW 11 kph)
- 10SM
02:15
Partly Cloudy
52°F / 11°C 46°F / 8°C 82% 30.33 in
(1027 mb)
SSW 8.1 mph
(SSW 13 kph)
- 10SM
01:55
Partly Cloudy
52°F / 11°C 46°F / 8°C 82% 30.33 in
(1027 mb)
SSW 9.2 mph
(SSW 15 kph)
- 7SM
01:35
Clear
52°F / 11°C 46°F / 8°C 82% 30.33 in
(1027 mb)
SSW 8.1 mph
(SSW 13 kph)
- 10SM
01:15
Clear
52°F / 11°C 46°F / 8°C 82% 30.33 in
(1027 mb)
SSW 5.8 mph
(SSW 9 kph)
- 10SM
00:55
Partly Cloudy
52°F / 11°C 46°F / 8°C 82% 30.3 in
(1026 mb)
SSW 10.4 mph
(SSW 17 kph)
- 10SM
00:35
Mostly Cloudy
52°F / 11°C 48°F / 9°C 88% 30.3 in
(1026 mb)
SSW 8.1 mph
(SSW 13 kph)
- 10SM
00:15
Mostly Cloudy
52°F / 11°C 48°F / 9°C 88% 30.3 in
(1026 mb)
SSW 8.1 mph
(SSW 13 kph)
- 10SM
Time Weather Temperature Dewpoint Humidity Pressure Winds Precip Visibility


Weather for websites

WeatherForYou.com, LLC is not responsible for any damages or problems caused by this service. Current weather conditions are obtained from the closest station including government and personal stations which may have varying degrees of accuracy. Weather forecasts are derived from the NOAA NDFD. Like all things, this site belongs to Jesus Christ... He just trusts me to maintain it. If you have any questions or comments email webmaster@weatherforyou.com

Copyright © 2015, WeatherForYou.com LLC. All rights reserved.